Wind_Speed
48 41 35 30 30 33 36 40 38 44 45 47 47 47 45 43 45 43 42 43 40 38
38 37 36 29 31 28 30 32 36 36 39 43 44 46 45 43 43 43 42 42 42 38
28 29 29 29 39 37 33 32 32 32 35 38 40 42 42 39 41 38 41 40 36 40
28 28 26 23 24 26 22 33 37 36 36 38 38 38 38 40 38 38 38 37 37 40
15 18 21 21 21 26 43 39 32 31 32 36 37 39 41 40 38 39 36 39 37 39
10 4 4 8 7 12 11 8 10 17 22 27 31 35 38 41 40 38 39 39 37 37
26 19 14 8 6 7 8 8 6 6 9 14 21 28 32 37 39 37 37 39 40 38
36 30 21 17 16 15 13 13 11 10 10 10 12 14 22 28 34 36 36 38 41 41
37 35 35 30 25 20 17 15 14 12 11 10 11 12 14 15 23 27 29 32 34 38
31 34 33 33 30 28 26 19 14 13 14 15 14 15 15 15 18 22 25 29 31 33
26 27 30 31 33 33 32 29 24 17 14 15 17 17 17 16 17 20 23 23 27 34
27 29 25 27 29 32 30 32 28 25 20 19 19 18 18 18 17 20 24 25 26 26
30 33 31 27 31 29 31 32 32 28 27 22 22 20 17 16 17 22 25 26 27 28
29 31 31 33 34 34 35 34 34 31 31 27 23 22 19 19 19 20 24 27 31 30
Wind_Direction
210 208 213 215 213 211 208 213 220 225 227 234 236 239 239 239 244 243 241 240 239 238
211 209 206 217 220 224 227 221 220 229 233 235 240 243 241 237 238 240 240 241 241 237
218 219 231 212 224 219 221 228 230 231 239 243 243 243 239 235 239 237 240 240 238 239
213 216 219 219 210 214 237 240 238 238 240 244 246 246 241 238 236 235 236 238 236 241
229 218 212 223 243 256 249 231 237 238 241 245 247 250 247 241 236 233 232 235 235 238
55 128 183 209 187 230 237 248 254 256 255 258 258 255 251 250 243 237 235 237 236 238
14 19 21 32 33 7 356 358 347 323 301 285 278 266 260 253 249 246 242 241 240 239
12 2 358 10 12 12 12 6 349 337 329 319 306 300 285 272 257 251 247 245 245 244
0 0 2 357 347 342 345 346 340 339 326 315 313 319 316 309 289 273 261 256 252 250
351 345 345 344 347 342 329 323 315 322 326 324 326 325 330 327 314 304 293 272 265 260
338 334 331 330 329 333 336 327 314 316 318 319 328 333 331 323 311 304 303 302 284 270
327 320 320 319 313 314 323 325 317 300 295 301 311 326 325 317 312 306 301 301 299 294
312 308 305 306 305 306 309 310 317 299 279 287 297 311 316 310 303 301 302 299 301 298
299 296 299 299 299 302 304 305 303 304 279 274 280 293 300 297 294 294 301 300 302 307
Height
703 707 718 725 727 728 729 730 735 741 746 750 754 758 762 765 768 770 772 774 775 778
701 706 707 715 724 729 734 730 731 735 740 745 748 751 754 756 758 760 763 764 766 768
704 707 710 701 719 717 725 730 728 729 733 736 738 741 745 748 750 753 754 755 757 757
698 703 707 711 715 715 713 724 722 719 722 727 731 735 737 738 741 742 744 747 749 747
699 704 706 708 710 699 704 709 716 713 714 719 723 725 727 730 730 731 733 736 738 738
706 706 704 707 705 712 718 709 706 710 710 713 716 719 721 723 723 721 722 725 727 729
712 711 711 711 711 710 705 701 705 706 706 707 711 713 714 716 717 716 716 717 717 719
716 713 711 708 708 707 706 706 707 705 705 706 709 708 710 710 710 708 706 707 707 707
719 715 714 711 708 710 708 705 706 706 706 705 706 704 703 701 702 701 699 699 699 698
726 723 719 717 713 711 708 706 704 703 702 702 700 700 697 694 693 693 692 691 691 691
731 727 723 718 713 707 705 701 698 695 696 695 694 691 687 689 689 687 685 684 685 684
732 729 718 713 713 709 703 699 695 693 691 689 688 683 681 682 682 681 679 677 676 678
727 724 718 709 707 703 699 696 691 685 685 682 679 678 676 677 676 675 673 671 667 667
725 720 707 702 698 695 690 687 683 680 676 674 673 672 670 671 669 668 665 663 659 657